Terminal Aerodrome Forecast
Issued by NWS

Home | Current Version | Previous Version | Text Only | Print | Product List | Glossary On
Versions: 1 2 3 4 5 6 7 8 9 10 11 12 13 14 15 16 17 18 19 20 21
000
FTUS43 KDMX 231724
TAFMCW
TAF
KMCW 231724Z 2318/2418 31017G24KT P6SM BKN040
     FM240200 31008KT P6SM SCT100
     FM241500 30012G19KT P6SM FEW200=

USA.gov is the U.S. government's official web portal to all federal, state and local government web resources and services.